sat.trackr.live / text

‹ back to catalog

GLOBALSTAR M097

NORAD 39072 · 2013-005A

PAYLOAD ACTIVE UNKNOWN

§ Identity

Operator
Country
GLOB
Launch date
2013-02-06
Launch site
TYMSC
Launch vehicle
Mass (kg)
RCS (m²)
4.34

Purposes: comms

External: N2YO · Heavens-Above · Gunter

§ Orbital elements

Epoch: 2026-05-24T21:10:42.517056Z

Period
114.08 min
Inclination
52.0057°
Eccentricity
0.0000622
Mean motion
12.62251163 rev/d
Perigee alt
1,413.2 km
Apogee alt
1,414.2 km
Semi-major
7,791.8 km
B*
7.5172e-5
RAAN
314.2755°
Arg perigee
103.4772°
Mean anomaly
256.6164°
Rev number
61,396

§ Raw data

GLOBALSTAR M0971 39072U 13005A   26144.88243654 -.00000090  00000+0  75172-4 0  99922 39072  52.0057 314.2755 0000622 103.4772 256.6164 12.62251163613967

JSON: /api/v1/satellites/39072 · /tle

For live sub-satellite position, see the globe view (requires WebGL).

§ Visibility from observer

Set your observer location to see the next 7 days of passes ≥ 10°. The values pass through the URL so the page stays shareable.

No JS? Fill the form by hand. The geolocation button needs JavaScript.